Charles City, IA

10:36 PM CDT on June 22, 2017 (GMT -0500)
Charles City Municipal

Weather History for KCCY - July, 2013

Change the Weather History Date:

Friday, July 26, 2013

  Actual Average Record
Temperature  
Mean Temperature 65 °F -  
Max Temperature 71 °F 83 °F 99 °F (1955)
Min Temperature 59 °F 61 °F 47 °F (1962)
Growing Degree Days 15 (Base 50)    
Moisture  
Dew Point 58 °F    
Average Humidity 76    
Maximum Humidity 100    
Minimum Humidity 56    
Precipitation  
Precipitation 0.01 in - - ()
Sea Level Pressure  
Sea Level Pressure 29.99 in    
Wind  
Wind Speed 13 mph (WNW)    
Max Wind Speed 24 mph    
Max Gust Speed 32 mph    
Visibility 9 miles    
Events      
Averages and records for this station are not official NWS values.
T = Trace of Precipitation, MM = Missing Value Source: NWS Daily Summary

Daily Weather History Graph

Daily Weather History Graph

Search for Another Location

Airport or City:

Trip Planner

Search our weather history database for the weather conditions in past years. The results will help you decide how hot, cold, wet, or windy it might be!

Date:

Astronomy

Jul. 26, 2013 Rise Set
Actual Time 5:55 AM CDT 8:38 PM CDT
Civil Twilight 5:22 AM CDT 9:10 PM CDT
Nautical Twilight 4:40 AM CDT 9:52 PM CDT
Astronomical Twilight 3:53 AM CDT 10:39 PM CDT
Moon 10:42 PM CDT (7/26) 10:41 AM CDT (7/26)
Length of Visible Light 15h 48m
Length of Day
14h 42m
Waning Gibbous, 80% of the Moon is Illuminated
Jul 26
Waning Gibbous
Jul 29
Last Quarter
Aug 6
New
Aug 14
First Quarter
Aug 20
Full

Hourly Weather History & Observations

Time (CDT) Temp. Dew Point Humidity Pressure Visibility Wind Dir Wind Speed Gust Speed Precip Events Conditions
12:15 AM 64.4 °F 62.6 °F 94% 29.99 in 10.0 mi South 13.8 mph - N/A   Overcast
12:35 AM 64.4 °F 62.6 °F 94% 29.99 in 10.0 mi South 13.8 mph 20.7 mph N/A   Overcast
12:55 AM 64.4 °F 62.6 °F 94% 29.99 in 10.0 mi South 13.8 mph 20.7 mph 0.01 in   Overcast
1:15 AM 64.4 °F 62.6 °F 94% 29.97 in 10.0 mi South 15.0 mph 20.7 mph N/A   Overcast
1:35 AM 64.4 °F 62.6 °F 94% 29.96 in 9.0 mi South 13.8 mph - N/A   Overcast
1:55 AM 64.4 °F 62.6 °F 94% 29.96 in 8.0 mi South 13.8 mph 19.6 mph N/A   Overcast
2:15 AM 64.4 °F 62.6 °F 94% 29.96 in 6.0 mi South 10.4 mph - N/A   Overcast
2:35 AM 64.4 °F 62.6 °F 94% 29.95 in - South 9.2 mph - N/A   Overcast
2:55 AM 64.4 °F 62.6 °F 94% 29.95 in 4.0 mi South 8.1 mph - N/A   Overcast
3:15 AM 64.4 °F 62.6 °F 94% 29.95 in 2.5 mi South 8.1 mph - N/A   Overcast
3:35 AM 64.4 °F 62.6 °F 94% 29.95 in 2.0 mi SSW 9.2 mph - N/A   Overcast
3:55 AM 64.4 °F 62.6 °F 94% 29.96 in 4.0 mi North - - N/A   Overcast
4:15 AM 64.4 °F 62.6 °F 94% 29.96 in 10.0 mi SSW 9.2 mph - N/A   Overcast
4:35 AM 64.4 °F 62.6 °F 94% 29.96 in 10.0 mi SSW 9.2 mph - N/A   Overcast
4:55 AM 64.4 °F 62.6 °F 94% 29.95 in 10.0 mi SSW 8.1 mph - N/A   Overcast
5:15 AM 64.4 °F 62.6 °F 94% 29.95 in 10.0 mi SW 8.1 mph - N/A   Overcast
5:35 AM 64.4 °F 62.6 °F 94% 29.95 in 10.0 mi SW 6.9 mph - N/A   Overcast
5:55 AM 64.4 °F 62.6 °F 94% 29.95 in 10.0 mi SSW 5.8 mph - N/A   Overcast
6:15 AM 64.4 °F 62.6 °F 94% 29.95 in 8.0 mi SW 6.9 mph - N/A   Overcast
6:35 AM 64.4 °F 62.6 °F 94% 29.95 in 6.0 mi SW 6.9 mph - N/A   Overcast
6:55 AM 64.4 °F 62.6 °F 94% 29.96 in 6.0 mi SW 6.9 mph - N/A   Overcast
7:15 AM 64.4 °F 64.4 °F 100% 29.96 in 5.0 mi WSW 5.8 mph - N/A   Overcast
7:35 AM 66.2 °F 64.4 °F 94% 29.96 in 5.0 mi SW 5.8 mph - N/A   Overcast
7:55 AM 66.2 °F 64.4 °F 94% 29.96 in 5.0 mi WSW 5.8 mph - N/A   Overcast
8:15 AM 68.0 °F 64.4 °F 88% 29.96 in 6.0 mi West 5.8 mph - N/A   Overcast
8:35 AM 68.0 °F 64.4 °F 88% 29.97 in 7.0 mi West 8.1 mph - N/A   Overcast
8:55 AM 68.0 °F 64.4 °F 88% 29.97 in 8.0 mi WNW 10.4 mph - N/A   Overcast
9:15 AM 68.0 °F 64.4 °F 88% 29.97 in 10.0 mi NW 12.7 mph - N/A   Overcast
9:35 AM 69.8 °F 62.6 °F 78% 29.98 in 10.0 mi NW 15.0 mph - N/A   Overcast
9:55 AM 69.8 °F 62.6 °F 78% 29.97 in 10.0 mi NNW 12.7 mph 20.7 mph N/A   Scattered Clouds
10:15 AM 69.8 °F 60.8 °F 73% 29.97 in 10.0 mi NW 15.0 mph - N/A   Partly Cloudy
10:35 AM 69.8 °F 59.0 °F 68% 29.98 in 10.0 mi NW 15.0 mph - N/A   Scattered Clouds
10:55 AM 69.8 °F 57.2 °F 64% 29.98 in 10.0 mi NW 18.4 mph 24.2 mph N/A   Mostly Cloudy
11:15 AM 69.8 °F 59.0 °F 68% 29.98 in 10.0 mi NW 13.8 mph 23.0 mph N/A   Partly Cloudy
11:35 AM 69.8 °F 55.4 °F 60% 29.99 in 10.0 mi NW 16.1 mph - N/A   Partly Cloudy
11:55 AM 69.8 °F 53.6 °F 56% 29.99 in - NW 18.4 mph - N/A   Scattered Clouds
12:15 PM 71.6 °F 55.4 °F 57% 30.00 in 10.0 mi NW 18.4 mph 28.8 mph N/A   Scattered Clouds
12:35 PM 69.8 °F 55.4 °F 60% 30.00 in 10.0 mi NW 17.3 mph 29.9 mph N/A   Scattered Clouds
12:55 PM 68.0 °F 55.4 °F 64% 30.00 in 10.0 mi WNW 21.9 mph 31.1 mph N/A   Scattered Clouds
1:15 PM 69.8 °F 55.4 °F 60% 30.00 in 10.0 mi NW 20.7 mph 28.8 mph N/A   Scattered Clouds
1:35 PM 69.8 °F 55.4 °F 60% 30.01 in 10.0 mi WNW 21.9 mph 32.2 mph N/A   Mostly Cloudy
1:55 PM 66.2 °F 53.6 °F 64% 30.02 in 10.0 mi NW 24.2 mph 31.1 mph N/A   Overcast
2:15 PM 66.2 °F 53.6 °F 64% 30.01 in 10.0 mi WNW 16.1 mph 25.3 mph N/A   Overcast
2:35 PM 68.0 °F 53.6 °F 60% 30.02 in 10.0 mi NW 21.9 mph 28.8 mph N/A   Mostly Cloudy
2:55 PM 68.0 °F 55.4 °F 64% 30.01 in 10.0 mi NW 16.1 mph 21.9 mph N/A   Mostly Cloudy
3:15 PM 68.0 °F 55.4 °F 64% 30.01 in 10.0 mi NW 16.1 mph 23.0 mph N/A   Mostly Cloudy
3:35 PM 68.0 °F 55.4 °F 64% 30.00 in 10.0 mi WNW 16.1 mph 25.3 mph N/A   Mostly Cloudy
3:55 PM 69.8 °F 55.4 °F 60% 30.00 in 10.0 mi NW 18.4 mph - N/A   Mostly Cloudy
4:15 PM 69.8 °F 55.4 °F 60% 30.00 in 10.0 mi WNW 17.3 mph - N/A   Overcast
4:35 PM 69.8 °F 55.4 °F 60% 30.00 in 10.0 mi WNW 17.3 mph - N/A   Scattered Clouds
4:55 PM 69.8 °F 55.4 °F 60% 30.00 in 10.0 mi WNW 19.6 mph - N/A   Mostly Cloudy
5:15 PM 69.8 °F 55.4 °F 60% 30.00 in 10.0 mi WNW 12.7 mph 19.6 mph N/A   Mostly Cloudy
5:35 PM 69.8 °F 55.4 °F 60% 30.00 in 10.0 mi WNW 13.8 mph - N/A   Mostly Cloudy
5:55 PM 69.8 °F 55.4 °F 60% 30.00 in 10.0 mi NW 13.8 mph 23.0 mph N/A   Overcast
6:15 PM 69.8 °F 53.6 °F 56% 30.00 in 10.0 mi NW 19.6 mph 25.3 mph N/A   Mostly Cloudy
6:35 PM 69.8 °F 53.6 °F 56% 30.00 in 10.0 mi NW 16.1 mph 24.2 mph N/A   Partly Cloudy
6:55 PM 68.0 °F 53.6 °F 60% 29.99 in 10.0 mi NNW 13.8 mph 20.7 mph N/A   Clear
7:15 PM 68.0 °F 53.6 °F 60% 30.00 in 10.0 mi NNW 17.3 mph 25.3 mph N/A   Clear
7:35 PM 68.0 °F 53.6 °F 60% 30.00 in 10.0 mi NNW 20.7 mph 29.9 mph N/A   Mostly Cloudy
7:55 PM 66.2 °F 53.6 °F 64% 30.01 in 10.0 mi NNW 16.1 mph 23.0 mph N/A   Scattered Clouds
8:15 PM 66.2 °F 53.6 °F 64% 30.01 in 10.0 mi NW 12.7 mph - N/A   Mostly Cloudy
8:35 PM 66.2 °F 53.6 °F 64% 30.02 in 10.0 mi NNW 17.3 mph - N/A   Overcast
8:55 PM 64.4 °F 53.6 °F 68% 30.03 in 10.0 mi NNW 20.7 mph - N/A   Overcast
9:15 PM 64.4 °F 51.8 °F 64% 30.03 in 10.0 mi North 16.1 mph 25.3 mph N/A   Overcast
9:35 PM 62.6 °F 51.8 °F 68% 30.04 in 10.0 mi North 15.0 mph - N/A   Overcast
9:55 PM 62.6 °F 53.6 °F 72% 30.05 in 10.0 mi North 11.5 mph - N/A   Overcast
10:15 PM 60.8 °F 53.6 °F 77% 30.05 in 10.0 mi NNW 13.8 mph - N/A   Overcast
10:35 PM 60.8 °F 51.8 °F 72% 30.05 in 10.0 mi North 13.8 mph 19.6 mph N/A   Overcast
10:55 PM 59.0 °F 51.8 °F 77% 30.05 in 10.0 mi NNW 8.1 mph 17.3 mph N/A   Mostly Cloudy
11:15 PM 59.0 °F 51.8 °F 77% 30.04 in 10.0 mi NNW 11.5 mph - N/A   Scattered Clouds
11:35 PM 59.0 °F 51.8 °F 77% 30.04 in 10.0 mi NNW 11.5 mph - N/A   Overcast
11:55 PM 59.0 °F 51.8 °F 77% 30.04 in 10.0 mi NNW 12.7 mph - N/A   Overcast